weather.gov     
National Weather Service

Regional Weather Roundup
NWS Homepage
This page is being discontinued on March 12, 2014.
The same data is available at this site. Please update your bookmarks.
Thank you, and we apologize for the inconvenience.
Please send an email to SR-SRH.Webmaster@noaa.gov with any concerns.


Current Version
Previous Version:    01  02  03  04  05  06  07  08  09  10  11  12  13  14  15  16  17  18  19  20  21  22  23  24  25  26  27  
[Printable]
457
ASUS44 KBMX 202210
RWRAL

ALABAMA REGIONAL WEATHER ROUNDUP
NATIONAL WEATHER SERVICE BIRMINGHAM AL
400 PM CST SAT DEC 20 2014

NOTE: "FAIR" INDICATES FEW OR NO CLOUDS BELOW 12,000 FEET
WITH NO SIGNIFICANT WEATHER AND/OR OBSTRUCTIONS TO VISIBILITY.

THE REMARK "TC" DENOTES TEMPERATURE IN DEGREES CELSIUS.

ALZ001>011-014-016>018-020-202300-
NORTH ALABAMA

CITY           SKY/WX    TMP DP  RH WIND       PRES   REMARKS
MUSCLE SHOALS  CLEAR     53  30  41 N6        30.21R
HUNTSVILLE     CLEAR     53  32  44 N10       30.19R
DECATUR        CLEAR     51  32  48 NE8       30.20R
HALEYVILLE     FAIR      49  32  52 CALM      30.21R
GADSDEN        CLOUDY    50  36  57 NW5       30.18R
$$

ALZ012-013-022-023-030>036-040>044-202300-
WEST CENTRAL ALABAMA

CITY           SKY/WX    TMP DP  RH WIND       PRES   REMARKS
TUSCALOOSA     CLEAR     54  38  54 NE6       30.18S
$$

ALZ015-024>027-033>036-040>044-202300-
CENTRAL ALABAMA

CITY           SKY/WX    TMP DP  RH WIND       PRES   REMARKS
BIRMINGHAM     CLOUDY    50  37  61 N8        30.19R
MONTGOMERY     CLOUDY    53  46  77 N6        30.16R
SHELBY CO ARPT CLOUDY    51  42  71 N6        30.17R
MAXWELL AFB    CLOUDY    53  47  81 N6        30.15R
GREENVILLE     CLOUDY    51  47  86 N7        30.13R
$$

ALZ019-021-028-029-037-038-045>048-202300-
EAST CENTRAL ALABAMA

CITY           SKY/WX    TMP DP  RH WIND       PRES   REMARKS
ANNISTON       CLOUDY    49  43  80 VRB3      30.18R
ALEXANDER CITY CLOUDY    54  45  70 N3        30.15R
AUBURN         CLOUDY    48  45  87 N7        30.17R
$$

ALZ051>064-202300-
SOUTHWEST ALABAMA

CITY           SKY/WX    TMP DP  RH WIND       PRES   REMARKS
MOBILE         CLOUDY    49  47  93 N9        30.12R
BROOKLEY FIELD CLOUDY    51  48  89 N12       30.12S
EVERGREEN      CLOUDY    51  48  89 N6        30.14R
$$

ALZ049-050-065>069-202300-
SOUTHEAST ALABAMA

CITY           SKY/WX    TMP DP  RH WIND       PRES   REMARKS
DOTHAN         CLOUDY    57  50  77 NE6       30.14R
OZARK          CLOUDY    56  49  77 N6        30.11R
TROY           CLOUDY    52  48  86 NE6       30.14R
EUFAULA        CLOUDY    53  49  86 NE3       30.13R
$$




U.S. Dept. of Commerce
NOAA National Weather Service
1325 East West Highway
Silver Spring, MD 20910
E-mail: w-nws.webmaster@noaa.gov
Page last modified: May 16, 2007
NATIONAL WEATHER SERVICE: for Safety, for Work, for Fun - FOR LIFE